QPF
0.00 0.00 0.00 0.00 0.00 0.00 0.00 0.00 0.00 0.00 0.00 0.00 0.00 0.00 0.00 0.00 0.00 0.00 0.00 0.00 0.00 0.00 0.00 0.00 0.00 0.00 0.00 0.00 0.00 0.00 0.00 0.00 0.00 0.00 0.00 0.00 0.00 0.00 0.00 0.00 0.01 0.02 0.02 0.00 0.00 0.00 0.00 0.00 0.00
0.00 0.00 0.00 0.00 0.00 0.00 0.00 0.00 0.00 0.00 0.00 0.00 0.00 0.00 0.00 0.00 0.00 0.00 0.00 0.00 0.00 0.00 0.00 0.00 0.00 0.00 0.00 0.00 0.00 0.00 0.00 0.00 0.00 0.00 0.00 0.00 0.00 0.00 0.00 0.00 0.01 0.01 0.00 0.00 0.00 0.00 0.00 0.00 0.00
0.00 0.00 0.00 0.00 0.00 0.00 0.00 0.00 0.00 0.00 0.00 0.00 0.00 0.00 0.00 0.00 0.00 0.00 0.00 0.00 0.00 0.00 0.00 0.00 0.00 0.00 0.00 0.00 0.00 0.00 0.00 0.00 0.00 0.00 0.00 0.00 0.00 0.00 0.00 0.00 0.00 0.00 0.00 0.00 0.00 0.00 0.00 0.00 0.00
0.00 0.00 0.00 0.00 0.00 0.00 0.00 0.00 0.00 0.00 0.00 0.00 0.00 0.00 0.00 0.00 0.00 0.00 0.00 0.00 0.00 0.00 0.00 0.00 0.00 0.00 0.00 0.00 0.00 0.00 0.00 0.00 0.00 0.00 0.00 0.00 0.00 0.00 0.00 0.00 0.00 0.00 0.00 0.00 0.00 0.00 0.00 0.00 0.00
0.00 0.00 0.00 0.00 0.00 0.00 0.00 0.00 0.00 0.00 0.00 0.00 0.00 0.00 0.00 0.00 0.00 0.00 0.00 0.00 0.00 0.00 0.00 0.00 0.00 0.00 0.00 0.00 0.00 0.00 0.00 0.00 0.00 0.01 0.01 0.00 0.00 0.00 0.00 0.00 0.00 0.00 0.00 0.00 0.00 0.00 0.00 0.00 0.00
0.00 0.00 0.00 0.00 0.00 0.00 0.00 0.00 0.00 0.00 0.00 0.00 0.00 0.00 0.00 0.00 0.00 0.00 0.00 0.00 0.00 0.00 0.00 0.00 0.00 0.00 0.00 0.00 0.00 0.00 0.00 0.00 0.00 0.00 0.00 0.00 0.00 0.00 0.00 0.00 0.00 0.00 0.00 0.00 0.00 0.00 0.00 0.00 0.00
0.00 0.00 0.00 0.00 0.00 0.00 0.00 0.00 0.00 0.00 0.00 0.00 0.00 0.00 0.00 0.00 0.00 0.00 0.00 0.00 0.00 0.00 0.00 0.00 0.00 0.00 0.00 0.00 0.00 0.00 0.00 0.00 0.00 0.00 0.00 0.00 0.00 0.00 0.00 0.00 0.00 0.00 0.00 0.00 0.00 0.00 0.00 0.00 0.00
0.00 0.00 0.00 0.00 0.00 0.00 0.00 0.00 0.00 0.00 0.00 0.00 0.00 0.00 0.00 0.00 0.00 0.00 0.00 0.00 0.00 0.00 0.00 0.00 0.00 0.00 0.00 0.00 0.00 0.00 0.00 0.00 0.00 0.00 0.00 0.00 0.00 0.00 0.00 0.00 0.00 0.00 0.00 0.00 0.00 0.00 0.00 0.00 0.00
0.00 0.00 0.00 0.00 0.00 0.00 0.00 0.00 0.00 0.00 0.00 0.00 0.00 0.00 0.00 0.00 0.00 0.00 0.00 0.00 0.00 0.00 0.00 0.00 0.00 0.00 0.00 0.00 0.00 0.00 0.00 0.00 0.00 0.00 0.00 0.00 0.00 0.00 0.00 0.00 0.00 0.00 0.00 0.00 0.00 0.00 0.00 0.00 0.00
0.00 0.00 0.00 0.00 0.00 0.00 0.00 0.00 0.00 0.00 0.00 0.00 0.00 0.00 0.00 0.00 0.00 0.00 0.00 0.00 0.00 0.00 0.00 0.00 0.00 0.00 0.00 0.00 0.00 0.00 0.00 0.00 0.00 0.00 0.00 0.00 0.00 0.00 0.00 0.00 0.00 0.00 0.00 0.00 0.00 0.00 0.00 0.00 0.00
0.00 0.00 0.00 0.00 0.00 0.00 0.00 0.00 0.00 0.00 0.00 0.00 0.00 0.00 0.00 0.00 0.00 0.00 0.00 0.00 0.00 0.00 0.00 0.00 0.00 0.00 0.00 0.00 0.00 0.00 0.00 0.00 0.00 0.00 0.00 0.00 0.00 0.00 0.00 0.00 0.00 0.00 0.00 0.00 0.00 0.00 0.00 0.00 0.00
0.00 0.00 0.00 0.00 0.00 0.00 0.00 0.00 0.00 0.00 0.00 0.00 0.00 0.00 0.00 0.00 0.00 0.00 0.00 0.00 0.00 0.00 0.00 0.00 0.00 0.00 0.00 0.00 0.00 0.00 0.00 0.00 0.00 0.00 0.00 0.00 0.00 0.00 0.00 0.00 0.00 0.00 0.00 0.00 0.00 0.00 0.00 0.00 0.00
0.00 0.00 0.00 0.00 0.00 0.00 0.00 0.00 0.00 0.00 0.00 0.00 0.00 0.00 0.00 0.00 0.00 0.00 0.00 0.00 0.00 0.00 0.00 0.00 0.00 0.00 0.00 0.00 0.00 0.00 0.00 0.00 0.00 0.00 0.00 0.00 0.00 0.00 0.00 0.00 0.00 0.00 0.00 0.00 0.00 0.00 0.00 0.00 0.00
0.00 0.00 0.00 0.00 0.00 0.00 0.00 0.00 0.00 0.00 0.00 0.00 0.00 0.00 0.00 0.00 0.00 0.00 0.00 0.00 0.00 0.00 0.00 0.00 0.00 0.00 0.00 0.00 0.00 0.00 0.00 0.00 0.00 0.00 0.00 0.00 0.00 0.00 0.00 0.00 0.00 0.00 0.00 0.00 0.00 0.00 0.00 0.00 0.00
0.00 0.00 0.00 0.00 0.00 0.00 0.00 0.00 0.00 0.00 0.00 0.00 0.00 0.00 0.00 0.00 0.00 0.00 0.00 0.00 0.00 0.00 0.00 0.00 0.00 0.00 0.00 0.00 0.00 0.00 0.00 0.00 0.00 0.00 0.00 0.00 0.00 0.00 0.00 0.00 0.00 0.00 0.00 0.00 0.00 0.00 0.00 0.00 0.00
0.00 0.00 0.00 0.00 0.00 0.00 0.00 0.00 0.00 0.00 0.00 0.00 0.00 0.00 0.00 0.00 0.00 0.00 0.00 0.00 0.00 0.00 0.00 0.00 0.00 0.00 0.00 0.00 0.00 0.00 0.00 0.00 0.00 0.00 0.00 0.00 0.00 0.00 0.00 0.00 0.00 0.00 0.00 0.00 0.00 0.00 0.00 0.00 0.00
0.00 0.00 0.00 0.00 0.00 0.00 0.00 0.00 0.00 0.00 0.00 0.00 0.00 0.00 0.00 0.00 0.00 0.00 0.00 0.00 0.00 0.00 0.00 0.00 0.00 0.00 0.00 0.00 0.00 0.00 0.00 0.00 0.00 0.00 0.00 0.00 0.00 0.00 0.00 0.00 0.00 0.00 0.00 0.00 0.00 0.00 0.00 0.00 0.00
0.00 0.00 0.00 0.00 0.00 0.00 0.00 0.00 0.00 0.00 0.00 0.00 0.00 0.00 0.00 0.00 0.00 0.00 0.00 0.00 0.00 0.00 0.00 0.00 0.00 0.00 0.00 0.00 0.00 0.00 0.00 0.00 0.00 0.00 0.00 0.00 0.00 0.00 0.00 0.00 0.00 0.00 0.00 0.00 0.00 0.00 0.00 0.00 0.00
0.00 0.00 0.00 0.00 0.00 0.00 0.00 0.00 0.00 0.00 0.00 0.00 0.00 0.00 0.00 0.00 0.00 0.00 0.00 0.00 0.00 0.00 0.00 0.00 0.00 0.00 0.00 0.00 0.00 0.00 0.00 0.00 0.00 0.00 0.00 0.00 0.00 0.00 0.00 0.00 0.00 0.00 0.00 0.00 0.00 0.00 0.00 0.00 0.00
0.00 0.00 0.00 0.00 0.00 0.00 0.00 0.00 0.00 0.00 0.00 0.00 0.00 0.00 0.00 0.00 0.00 0.00 0.00 0.00 0.00 0.00 0.00 0.00 0.00 0.00 0.00 0.00 0.00 0.00 0.00 0.00 0.00 0.00 0.00 0.00 0.00 0.00 0.00 0.00 0.00 0.00 0.00 0.00 0.00 0.00 0.00 0.00 0.00
0.00 0.00 0.00 0.00 0.00 0.00 0.00 0.00 0.00 0.00 0.00 0.00 0.00 0.00 0.00 0.00 0.00 0.00 0.00 0.00 0.00 0.00 0.00 0.00 0.00 0.00 0.00 0.00 0.00 0.00 0.00 0.00 0.00 0.00 0.00 0.00 0.00 0.00 0.00 0.00 0.00 0.00 0.00 0.00 0.00 0.00 0.00 0.00 0.00
0.00 0.00 0.00 0.00 0.00 0.00 0.00 0.00 0.00 0.00 0.00 0.00 0.00 0.00 0.00 0.00 0.00 0.00 0.00 0.00 0.00 0.00 0.00 0.00 0.00 0.00 0.00 0.00 0.00 0.00 0.00 0.00 0.00 0.00 0.00 0.00 0.00 0.00 0.00 0.00 0.00 0.00 0.00 0.00 0.00 0.00 0.00 0.00 0.00
0.00 0.00 0.00 0.00 0.00 0.00 0.00 0.00 0.00 0.00 0.00 0.00 0.00 0.00 0.00 0.00 0.00 0.00 0.00 0.00 0.00 0.00 0.00 0.00 0.00 0.00 0.00 0.00 0.00 0.00 0.00 0.00 0.00 0.00 0.00 0.00 0.00 0.00 0.00 0.00 0.00 0.00 0.00 0.00 0.00 0.00 0.00 0.00 0.00
0.00 0.00 0.00 0.00 0.00 0.00 0.00 0.00 0.00 0.00 0.00 0.00 0.00 0.00 0.00 0.00 0.00 0.00 0.00 0.00 0.00 0.00 0.00 0.00 0.00 0.00 0.00 0.00 0.00 0.00 0.00 0.00 0.00 0.00 0.00 0.00 0.00 0.00 0.00 0.00 0.00 0.00 0.00 0.00 0.00 0.00 0.00 0.00 0.00
0.00 0.00 0.00 0.00 0.00 0.00 0.00 0.00 0.00 0.00 0.00 0.00 0.00 0.00 0.00 0.00 0.00 0.00 0.00 0.00 0.00 0.00 0.00 0.00 0.00 0.00 0.00 0.00 0.00 0.00 0.00 0.00 0.00 0.00 0.00 0.00 0.00 0.00 0.00 0.00 0.00 0.00 0.00 0.00 0.00 0.00 0.00 0.00 0.00
0.00 0.00 0.00 0.00 0.00 0.00 0.00 0.00 0.00 0.00 0.00 0.00 0.00 0.00 0.00 0.00 0.00 0.00 0.00 0.00 0.00 0.00 0.00 0.00 0.00 0.00 0.00 0.00 0.00 0.00 0.00 0.00 0.00 0.00 0.00 0.00 0.00 0.00 0.00 0.00 0.00 0.00 0.00 0.00 0.00 0.00 0.00 0.00 0.00
0.00 0.00 0.00 0.00 0.00 0.00 0.00 0.00 0.00 0.00 0.00 0.00 0.00 0.00 0.00 0.00 0.00 0.00 0.00 0.00 0.00 0.00 0.00 0.00 0.00 0.00 0.00 0.00 0.00 0.00 0.00 0.00 0.00 0.00 0.00 0.00 0.00 0.00 0.00 0.00 0.00 0.00 0.00 0.00 0.00 0.00 0.00 0.00 0.00
0.00 0.00 0.00 0.00 0.00 0.00 0.00 0.00 0.00 0.00 0.00 0.00 0.00 0.00 0.00 0.00 0.00 0.00 0.00 0.00 0.00 0.00 0.00 0.00 0.00 0.00 0.00 0.00 0.00 0.00 0.00 0.00 0.00 0.00 0.00 0.00 0.00 0.00 0.00 0.00 0.00 0.00 0.00 0.00 0.00 0.00 0.00 0.00 0.00
0.00 0.00 0.00 0.00 0.00 0.00 0.00 0.00 0.00 0.00 0.00 0.00 0.00 0.00 0.00 0.00 0.00 0.00 0.00 0.00 0.00 0.00 0.00 0.00 0.00 0.00 0.00 0.00 0.00 0.00 0.00 0.00 0.00 0.00 0.00 0.00 0.00 0.00 0.00 0.00 0.00 0.00 0.00 0.00 0.00 0.00 0.00 0.00 0.00
0.00 0.00 0.00 0.02 0.01 0.01 0.01 0.00 0.00 0.00 0.00 0.00 0.00 0.00 0.00 0.00 0.00 0.00 0.00 0.00 0.00 0.00 0.00 0.00 0.00 0.00 0.00 0.00 0.00 0.00 0.00 0.00 0.00 0.00 0.00 0.00 0.00 0.00 0.00 0.00 0.00 0.00 0.00 0.00 0.00 0.00 0.00 0.00 0.00
MSLP
1013.11 1012.45 1011.99 1011.79 1012.15 1011.24 1010.37 1010.50 1010.17 1010.17 1010.26 1010.59 1010.64 1010.84 1011.04 1010.85 1010.69 1011.76 1011.74 1011.78 1012.05 1012.24 1012.95 1013.82 1014.20 1014.62 1015.01 1015.39 1015.77 1016.21 1016.54 1016.82 1017.07 1017.28 1017.48 1017.66 1017.83 1017.95 1018.13 1018.20 1018.23 1018.46 1018.61 1018.79 1019.13 1019.37 1019.50 1019.67 1019.77
1012.87 1012.18 1012.05 1011.56 1011.49 1010.76 1010.53 1010.16 1010.19 1010.34 1010.41 1010.47 1010.47 1010.57 1010.66 1010.34 1010.36 1011.32 1011.76 1011.91 1012.00 1011.99 1012.71 1013.47 1014.09 1014.52 1014.94 1015.28 1015.70 1016.04 1016.35 1016.63 1016.85 1017.15 1017.43 1017.63 1017.84 1018.09 1018.29 1018.42 1018.47 1018.60 1018.77 1019.16 1019.32 1019.48 1019.74 1019.87 1020.07
1013.06 1012.30 1012.17 1011.54 1011.10 1010.71 1010.46 1010.13 1010.03 1010.03 1010.10 1010.46 1010.47 1010.34 1010.36 1010.34 1010.60 1011.21 1011.84 1011.91 1011.96 1012.23 1012.78 1013.26 1013.81 1014.27 1014.79 1015.22 1015.54 1015.89 1016.26 1016.53 1016.72 1016.92 1017.26 1017.60 1017.87 1018.17 1018.52 1018.68 1018.76 1018.81 1019.14 1019.40 1019.66 1019.71 1019.93 1020.11 1020.27
1012.53 1012.17 1012.02 1011.71 1010.93 1010.53 1010.32 1010.12 1010.15 1010.18 1010.35 1010.56 1010.69 1010.68 1010.24 1010.24 1010.70 1011.36 1011.84 1012.02 1012.22 1012.34 1012.52 1013.26 1013.95 1014.21 1014.44 1014.93 1015.42 1015.78 1016.10 1016.40 1016.66 1016.86 1017.11 1017.42 1017.76 1017.97 1018.42 1018.68 1018.75 1018.95 1019.24 1019.51 1019.84 1019.95 1020.03 1020.31 1020.48
1012.41 1012.03 1011.85 1011.37 1010.61 1010.30 1010.20 1010.24 1010.36 1010.44 1010.25 1010.45 1010.69 1010.56 1010.53 1010.56 1010.94 1011.34 1011.71 1012.02 1012.27 1012.53 1012.68 1013.26 1013.77 1014.39 1014.77 1014.98 1015.19 1015.55 1015.90 1016.20 1016.47 1016.68 1016.94 1017.23 1017.36 1017.85 1018.55 1018.91 1018.84 1018.98 1019.23 1019.58 1019.77 1020.04 1020.16 1020.51 1020.62
1012.29 1012.10 1011.86 1011.19 1010.58 1010.07 1010.07 1010.44 1010.52 1010.38 1010.36 1010.47 1010.69 1010.80 1010.60 1010.68 1010.93 1011.33 1011.57 1011.92 1012.05 1012.33 1012.77 1013.40 1013.86 1014.13 1014.57 1014.92 1015.28 1015.54 1015.79 1016.04 1016.28 1016.46 1016.79 1017.10 1017.20 1017.70 1018.30 1018.82 1018.87 1019.07 1019.42 1019.63 1019.82 1020.15 1020.27 1020.81 1020.79
1012.47 1012.29 1011.97 1011.43 1010.98 1010.35 1010.31 1010.59 1010.60 1010.63 1010.53 1010.57 1010.62 1010.93 1010.79 1011.27 1011.24 1011.34 1011.55 1011.68 1011.94 1012.06 1012.60 1013.10 1013.72 1014.20 1014.39 1014.59 1014.85 1015.20 1015.57 1015.83 1016.12 1016.31 1016.62 1016.96 1017.10 1017.52 1018.16 1018.70 1018.86 1019.09 1019.31 1019.55 1019.89 1020.25 1020.70 1020.81 1021.00
1012.72 1012.44 1011.90 1011.30 1010.90 1010.76 1010.74 1010.82 1010.87 1011.04 1010.73 1010.62 1010.70 1010.85 1010.82 1011.03 1011.26 1011.52 1011.72 1011.89 1012.00 1012.23 1012.60 1012.84 1013.10 1013.56 1014.05 1014.39 1014.59 1014.88 1015.21 1015.56 1015.88 1016.23 1016.53 1016.86 1017.12 1017.46 1018.05 1018.67 1018.92 1019.14 1019.34 1019.63 1020.03 1020.42 1020.47 1020.77 1021.09
1012.91 1012.81 1012.00 1011.32 1010.94 1010.85 1010.95 1011.14 1011.02 1010.99 1011.06 1010.90 1010.75 1010.48 1010.13 1010.43 1010.99 1011.40 1011.80 1012.05 1012.13 1012.18 1012.26 1012.43 1012.70 1013.01 1013.46 1013.96 1014.37 1014.80 1015.10 1015.47 1015.82 1016.20 1016.62 1017.01 1017.27 1017.53 1018.12 1018.56 1018.89 1019.08 1019.35 1019.73 1020.14 1020.50 1020.72 1020.94 1021.31
1013.13 1012.70 1011.88 1011.22 1011.14 1011.33 1011.38 1011.38 1011.49 1011.46 1011.24 1010.96 1010.39 1009.70 1009.74 1009.94 1010.62 1010.96 1011.32 1011.69 1011.91 1011.83 1011.98 1012.20 1012.57 1012.71 1012.98 1013.22 1013.69 1014.34 1014.80 1015.07 1015.58 1016.09 1016.54 1016.86 1017.19 1017.61 1018.09 1018.54 1018.92 1019.17 1019.47 1019.81 1020.18 1020.62 1021.05 1021.40 1021.59
1012.74 1012.60 1011.97 1011.65 1011.58 1011.69 1011.94 1011.98 1011.80 1011.54 1011.40 1011.09 1010.72 1010.29 1010.07 1010.04 1010.24 1010.62 1010.88 1010.85 1011.00 1011.06 1011.28 1011.64 1012.12 1012.30 1012.61 1012.92 1013.35 1013.90 1014.30 1014.75 1015.19 1015.44 1015.88 1016.33 1016.80 1017.30 1017.82 1018.50 1018.94 1019.34 1019.61 1020.03 1020.40 1020.87 1021.20 1021.23 1021.14
1012.64 1012.56 1012.40 1012.11 1011.85 1012.13 1012.29 1012.23 1012.21 1011.82 1011.13 1010.59 1010.36 1010.04 1010.02 1010.08 1010.37 1010.32 1010.41 1010.38 1010.31 1010.40 1010.64 1010.91 1011.38 1011.96 1012.34 1012.62 1012.90 1013.28 1013.78 1014.30 1014.77 1015.15 1015.53 1015.91 1016.33 1017.04 1017.49 1018.21 1018.73 1019.20 1019.57 1020.12 1020.60 1021.20 1021.32 1021.17 1021.18
1012.51 1012.66 1012.67 1012.24 1012.16 1012.20 1012.21 1012.35 1012.62 1011.41 1010.82 1010.31 1009.98 1009.72 1009.71 1009.87 1009.81 1009.67 1009.56 1009.62 1009.78 1010.15 1010.27 1010.41 1010.77 1011.29 1011.81 1012.34 1012.55 1012.91 1013.35 1013.74 1014.12 1014.66 1015.04 1015.52 1016.07 1016.82 1017.17 1017.73 1018.26 1018.75 1019.23 1019.70 1020.27 1020.76 1021.11 1021.36 1021.51
1012.55 1012.77 1012.78 1012.54 1012.22 1012.09 1012.21 1012.14 1012.42 1010.85 1010.25 1009.94 1009.59 1009.61 1009.73 1009.90 1009.73 1009.60 1009.65 1009.63 1009.58 1009.67 1009.76 1009.80 1010.27 1010.76 1011.36 1011.92 1012.39 1012.63 1012.82 1013.11 1013.57 1014.18 1014.57 1015.03 1015.66 1016.46 1017.16 1017.70 1018.07 1018.44 1018.80 1019.35 1019.94 1020.46 1020.85 1021.20 1021.42
1013.13 1013.36 1012.81 1011.82 1011.56 1011.83 1012.11 1011.92 1011.82 1010.71 1010.28 1009.80 1009.92 1009.93 1009.92 1010.00 1009.91 1010.83 1010.88 1010.85 1010.73 1010.38 1009.84 1009.82 1009.96 1010.47 1011.11 1011.83 1012.36 1012.62 1012.91 1013.12 1013.47 1013.78 1014.07 1014.51 1015.18 1016.02 1016.74 1017.49 1018.01 1018.38 1018.84 1019.46 1019.99 1020.53 1020.91 1021.22 1021.25
1013.43 1013.37 1012.79 1011.49 1011.39 1012.28 1012.12 1011.91 1011.29 1010.70 1010.64 1009.93 1010.12 1010.36 1010.11 1010.40 1011.54 1011.78 1011.98 1012.08 1011.99 1011.71 1011.37 1010.87 1010.34 1010.30 1010.84 1011.44 1012.12 1012.56 1012.87 1013.21 1013.49 1013.75 1014.06 1014.51 1015.09 1015.74 1016.48 1017.23 1017.76 1018.05 1018.60 1019.19 1019.95 1020.61 1020.96 1021.21 1021.41
1013.46 1013.03 1012.36 1011.67 1011.18 1012.19 1012.49 1012.18 1011.18 1010.50 1010.45 1010.01 1010.02 1010.18 1010.39 1011.68 1012.57 1013.50 1013.77 1013.45 1013.50 1013.05 1012.45 1011.88 1011.31 1010.89 1011.02 1011.53 1012.01 1012.44 1012.71 1013.16 1013.54 1013.92 1014.24 1014.54 1015.07 1015.61 1016.24 1016.91 1017.40 1017.84 1018.46 1019.06 1019.66 1020.37 1020.72 1021.22 1021.54
1013.14 1012.83 1012.37 1012.05 1011.71 1011.83 1012.40 1012.08 1011.59 1010.47 1010.19 1010.33 1010.27 1010.16 1011.82 1013.14 1014.26 1014.84 1015.49 1015.60 1014.83 1014.08 1013.35 1012.64 1012.19 1011.93 1011.67 1011.95 1012.48 1012.93 1013.19 1013.34 1013.52 1013.98 1014.43 1014.88 1015.37 1015.75 1016.15 1016.71 1017.10 1017.50 1018.32 1018.92 1019.52 1019.90 1020.26 1020.50 1020.99
1013.20 1013.07 1012.74 1012.30 1012.05 1012.07 1011.82 1011.67 1011.38 1010.58 1009.92 1010.34 1010.88 1011.53 1012.79 1013.92 1015.31 1016.24 1016.47 1016.08 1015.97 1015.04 1014.51 1013.90 1013.25 1012.87 1012.73 1012.95 1013.50 1013.76 1013.97 1014.00 1014.05 1014.05 1014.38 1014.69 1015.21 1015.93 1016.59 1016.99 1017.26 1017.50 1018.06 1018.56 1018.89 1019.50 1020.02 1020.62 1020.84
1013.19 1013.23 1012.90 1012.39 1011.97 1012.28 1012.07 1011.75 1011.25 1010.43 1010.08 1010.51 1011.41 1012.91 1013.89 1015.01 1016.02 1016.53 1016.80 1016.72 1016.48 1016.35 1015.69 1015.26 1014.74 1014.43 1013.85 1013.97 1014.00 1014.34 1014.73 1014.78 1014.87 1014.64 1014.59 1014.84 1015.14 1015.56 1016.19 1016.88 1017.53 1018.00 1018.22 1018.37 1018.72 1019.08 1019.92 1020.25 1020.22
1013.29 1013.48 1013.24 1013.07 1012.60 1012.59 1012.51 1012.08 1011.36 1010.09 1009.76 1011.16 1012.67 1014.03 1015.32 1016.54 1017.26 1017.49 1017.70 1017.56 1017.31 1017.13 1016.89 1016.34 1016.00 1015.61 1015.40 1014.83 1014.74 1014.78 1015.12 1015.31 1015.32 1015.35 1015.43 1015.39 1015.47 1015.86 1016.20 1016.56 1016.97 1017.50 1018.04 1018.35 1018.48 1018.48 1018.88 1019.63 1019.96
1013.42 1013.22 1013.28 1013.56 1013.91 1013.70 1013.22 1012.34 1011.50 1010.35 1011.32 1012.41 1013.79 1015.29 1016.62 1017.51 1017.94 1018.44 1018.38 1018.48 1018.46 1018.10 1017.77 1017.31 1017.14 1016.93 1016.62 1016.23 1015.77 1016.16 1016.43 1016.90 1016.42 1015.94 1015.81 1015.89 1015.86 1016.03 1016.31 1016.56 1016.85 1017.30 1017.64 1017.79 1017.82 1018.14 1018.09 1018.44 1019.16
1013.28 1013.44 1013.77 1014.29 1014.57 1014.50 1013.92 1013.74 1011.00 1010.64 1012.47 1014.00 1015.16 1016.28 1017.30 1017.96 1018.38 1018.90 1019.29 1019.53 1019.35 1018.87 1018.37 1018.13 1018.12 1018.16 1017.97 1017.60 1017.20 1017.19 1017.52 1017.56 1017.16 1016.70 1016.57 1016.44 1016.15 1016.22 1016.51 1016.75 1016.88 1017.22 1017.56 1017.77 1017.86 1017.92 1018.05 1018.00 1018.20
1013.61 1013.88 1014.06 1014.47 1015.22 1014.99 1013.68 1013.10 1011.63 1011.27 1012.33 1014.49 1015.92 1016.73 1017.61 1018.40 1018.85 1019.30 1019.66 1019.55 1019.68 1019.47 1019.38 1019.04 1018.77 1018.93 1018.98 1018.91 1018.65 1018.23 1018.31 1018.50 1018.10 1017.76 1017.43 1017.30 1016.92 1016.69 1016.54 1016.62 1016.97 1016.94 1017.20 1017.32 1017.61 1017.72 1017.75 1017.67 1017.61
1014.26 1014.65 1014.78 1015.47 1015.70 1014.51 1013.64 1013.30 1011.91 1011.94 1012.64 1013.90 1015.71 1017.11 1017.87 1018.51 1019.01 1019.48 1019.84 1019.98 1020.22 1019.86 1019.63 1019.87 1019.92 1019.98 1019.77 1019.80 1019.57 1019.26 1019.25 1018.82 1018.45 1018.65 1018.57 1018.37 1017.91 1017.55 1017.40 1017.11 1016.94 1016.92 1016.82 1016.99 1017.15 1017.42 1017.44 1017.41 1017.40
1014.03 1014.54 1015.62 1016.11 1016.10 1015.48 1014.78 1013.88 1012.75 1013.27 1013.79 1014.60 1016.06 1017.34 1018.35 1018.98 1019.22 1019.62 1019.92 1020.23 1020.86 1020.41 1020.27 1020.22 1020.38 1020.69 1020.84 1020.96 1020.68 1020.22 1019.54 1018.92 1019.02 1019.13 1019.14 1019.12 1018.69 1018.33 1017.84 1017.61 1017.29 1016.96 1016.80 1016.67 1016.59 1016.98 1017.17 1017.14 1017.05
1014.26 1015.01 1015.79 1016.48 1016.65 1016.59 1015.05 1013.74 1013.23 1013.90 1014.92 1015.80 1017.03 1018.01 1018.86 1019.48 1019.69 1019.82 1020.01 1020.53 1020.72 1020.63 1020.52 1020.54 1020.65 1021.05 1021.14 1021.16 1020.85 1020.50 1019.96 1019.84 1019.91 1019.87 1019.70 1019.65 1019.28 1018.80 1018.31 1017.90 1017.63 1017.23 1017.07 1016.87 1016.80 1016.61 1016.60 1016.86 1016.80
1014.41 1015.24 1016.38 1017.58 1017.50 1016.28 1014.88 1014.39 1013.62 1014.58 1015.57 1016.30 1017.56 1018.24 1018.86 1019.36 1019.64 1019.95 1020.23 1020.44 1020.75 1020.84 1020.91 1020.92 1020.79 1021.04 1021.39 1021.50 1021.13 1021.12 1020.61 1020.46 1020.60 1020.52 1020.29 1019.98 1019.49 1019.08 1018.71 1018.33 1017.95 1017.76 1017.38 1016.98 1016.75 1016.66 1016.47 1016.46 1016.22
1015.30 1015.42 1015.82 1016.71 1016.95 1016.42 1015.80 1014.13 1013.42 1014.76 1015.67 1016.46 1017.48 1018.67 1019.15 1019.54 1020.01 1020.41 1020.55 1020.59 1020.56 1020.80 1020.87 1021.07 1021.28 1021.42 1021.42 1021.35 1021.25 1021.25 1021.24 1020.79 1020.76 1020.76 1020.64 1020.42 1019.89 1019.41 1018.96 1018.58 1018.20 1017.78 1017.66 1017.09 1016.74 1016.35 1016.26 1016.45 1016.21
1015.24 1015.72 1016.03 1016.59 1016.68 1016.39 1015.72 1014.76 1013.93 1015.34 1016.37 1017.09 1018.22 1019.02 1019.63 1019.82 1020.27 1020.53 1020.61 1020.73 1020.76 1020.82 1020.78 1020.83 1020.94 1021.40 1021.36 1021.31 1021.38 1021.54 1021.46 1021.19 1020.84 1020.85 1020.72 1020.44 1020.05 1019.54 1019.16 1018.51 1018.18 1018.01 1017.69 1017.21 1016.56 1016.34 1016.06 1016.41 1016.05
Thickness
5756 5760 5763 5753 5719 5722 5722 5721 5743 5730 5731 5743 5745 5735 5727 5733 5729 5707 5748 5752 5751 5750 5743 5736 5733 5729 5726 5723 5720 5717 5714 5711 5710 5708 5707 5706 5706 5706 5705 5706 5706 5705 5706 5706 5705 5705 5704 5705 5705
5758 5762 5756 5743 5714 5709 5711 5740 5726 5734 5742 5747 5746 5741 5734 5735 5753 5744 5743 5751 5750 5750 5745 5739 5734 5730 5727 5724 5721 5719 5716 5714 5712 5710 5708 5706 5705 5704 5703 5703 5704 5703 5704 5701 5703 5703 5703 5703 5702
5757 5762 5739 5729 5720 5708 5711 5740 5737 5745 5748 5744 5740 5751 5744 5740 5751 5750 5751 5752 5750 5748 5743 5739 5736 5732 5728 5725 5723 5720 5717 5715 5713 5712 5709 5706 5705 5703 5701 5700 5701 5701 5700 5699 5698 5701 5701 5701 5700
5754 5751 5744 5716 5720 5733 5734 5739 5742 5740 5743 5745 5743 5730 5752 5760 5755 5753 5753 5751 5748 5747 5745 5739 5733 5731 5730 5726 5722 5719 5717 5715 5713 5712 5710 5707 5704 5704 5701 5700 5700 5700 5698 5697 5695 5696 5697 5697 5696
5753 5744 5719 5718 5726 5738 5743 5743 5744 5737 5742 5743 5741 5732 5738 5756 5758 5756 5752 5751 5747 5745 5743 5738 5733 5728 5725 5723 5722 5720 5717 5715 5713 5712 5710 5708 5707 5704 5700 5698 5698 5698 5697 5696 5695 5694 5695 5693 5693
5734 5737 5711 5709 5720 5739 5744 5743 5741 5740 5744 5741 5736 5732 5741 5754 5755 5753 5754 5749 5749 5745 5741 5736 5732 5729 5724 5721 5719 5717 5715 5714 5712 5711 5709 5708 5708 5704 5700 5697 5697 5696 5695 5694 5694 5692 5693 5688 5691
5729 5722 5710 5717 5716 5730 5737 5744 5734 5732 5733 5733 5743 5725 5740 5744 5749 5752 5751 5750 5747 5745 5741 5737 5732 5727 5725 5723 5721 5718 5715 5713 5711 5710 5708 5706 5706 5704 5700 5696 5696 5695 5694 5693 5691 5690 5686 5687 5688
5729 5725 5719 5723 5716 5714 5733 5736 5739 5730 5727 5745 5744 5720 5728 5743 5747 5746 5745 5744 5743 5742 5739 5736 5735 5731 5727 5724 5722 5719 5716 5713 5710 5708 5706 5704 5703 5701 5698 5694 5692 5691 5690 5689 5687 5685 5687 5685 5683
5736 5705 5702 5717 5722 5724 5732 5726 5737 5742 5730 5732 5741 5738 5746 5748 5744 5740 5736 5734 5736 5737 5738 5737 5735 5733 5730 5726 5722 5719 5715 5712 5709 5706 5702 5700 5698 5697 5693 5691 5689 5688 5687 5685 5682 5680 5680 5680 5679
5715 5703 5714 5731 5730 5720 5723 5723 5722 5722 5722 5722 5731 5748 5752 5749 5741 5734 5731 5728 5730 5732 5735 5735 5732 5731 5728 5726 5723 5718 5715 5713 5708 5704 5701 5698 5696 5693 5690 5687 5684 5683 5681 5680 5678 5676 5675 5673 5674
5719 5703 5722 5723 5726 5723 5715 5713 5721 5717 5713 5718 5722 5733 5741 5740 5739 5736 5733 5734 5733 5736 5735 5732 5729 5727 5725 5722 5719 5716 5713 5710 5706 5704 5702 5698 5695 5692 5689 5684 5681 5678 5676 5674 5671 5669 5669 5670 5672
5706 5716 5716 5718 5721 5716 5707 5712 5706 5715 5719 5728 5731 5736 5738 5734 5730 5731 5730 5733 5735 5735 5733 5733 5730 5726 5722 5720 5719 5716 5711 5707 5704 5700 5699 5696 5694 5690 5686 5682 5678 5675 5672 5669 5666 5663 5662 5663 5664
5706 5708 5711 5713 5714 5711 5712 5702 5697 5712 5724 5732 5733 5733 5731 5730 5728 5729 5734 5735 5735 5732 5732 5730 5730 5725 5721 5718 5716 5713 5710 5706 5703 5698 5695 5693 5689 5685 5682 5679 5675 5673 5669 5667 5663 5661 5658 5656 5655
5708 5702 5701 5704 5704 5707 5703 5702 5697 5714 5726 5726 5729 5725 5724 5722 5723 5724 5725 5728 5730 5731 5731 5732 5728 5725 5718 5714 5710 5709 5707 5705 5702 5695 5691 5689 5685 5680 5675 5671 5668 5666 5664 5663 5658 5656 5654 5651 5649
5697 5681 5692 5703 5703 5698 5701 5694 5689 5709 5718 5720 5717 5714 5716 5714 5714 5707 5713 5714 5716 5719 5725 5725 5724 5721 5714 5706 5703 5700 5699 5697 5696 5692 5690 5686 5681 5675 5669 5664 5661 5658 5654 5651 5648 5645 5644 5643 5643
5680 5676 5666 5700 5700 5682 5685 5673 5699 5707 5701 5710 5706 5705 5708 5706 5695 5700 5698 5696 5695 5697 5703 5708 5713 5713 5708 5702 5696 5692 5690 5688 5687 5686 5682 5679 5674 5668 5663 5658 5655 5651 5648 5645 5640 5637 5634 5633 5633
5669 5654 5665 5673 5699 5674 5666 5661 5696 5703 5698 5700 5700 5700 5700 5688 5684 5674 5674 5680 5678 5682 5687 5691 5695 5699 5697 5694 5689 5684 5681 5678 5676 5674 5672 5671 5665 5659 5656 5652 5648 5645 5642 5637 5634 5629 5626 5622 5621
5654 5655 5661 5654 5675 5674 5654 5652 5669 5692 5696 5690 5693 5697 5680 5671 5662 5659 5653 5653 5661 5667 5674 5679 5681 5682 5683 5680 5676 5671 5669 5668 5667 5663 5660 5657 5656 5651 5648 5644 5641 5639 5634 5630 5626 5622 5620 5619 5616
5656 5650 5646 5657 5665 5661 5663 5661 5663 5674 5687 5686 5687 5674 5668 5660 5649 5641 5638 5640 5641 5651 5655 5660 5665 5669 5667 5664 5658 5655 5653 5653 5652 5652 5650 5649 5647 5641 5634 5634 5633 5633 5628 5622 5620 5616 5613 5609 5608
5644 5634 5636 5649 5658 5651 5648 5649 5663 5672 5674 5675 5670 5658 5653 5644 5637 5634 5630 5628 5629 5630 5637 5640 5644 5646 5651 5648 5646 5643 5638 5637 5637 5637 5637 5635 5635 5634 5629 5623 5619 5618 5617 5615 5612 5609 5602 5601 5602
5636 5626 5629 5629 5642 5642 5627 5625 5642 5670 5677 5660 5650 5643 5635 5625 5618 5617 5615 5614 5614 5614 5615 5620 5623 5626 5627 5633 5633 5630 5626 5624 5624 5623 5622 5622 5620 5617 5617 5613 5610 5609 5605 5602 5603 5604 5602 5593 5592
5619 5635 5631 5625 5616 5600 5624 5595 5634 5656 5639 5634 5630 5619 5610 5604 5602 5599 5599 5597 5596 5597 5599 5601 5602 5604 5607 5610 5614 5612 5608 5604 5607 5610 5610 5609 5608 5606 5603 5601 5598 5595 5595 5594 5596 5593 5596 5591 5588
5621 5620 5621 5616 5603 5597 5606 5586 5624 5638 5614 5606 5601 5597 5590 5587 5585 5581 5575 5574 5575 5578 5583 5584 5583 5583 5584 5588 5590 5590 5585 5586 5589 5592 5592 5592 5595 5592 5589 5589 5587 5584 5581 5580 5579 5580 5579 5580 5580
5613 5609 5607 5601 5592 5572 5604 5601 5617 5625 5618 5593 5586 5582 5577 5571 5568 5565 5562 5560 5558 5560 5560 5562 5565 5563 5562 5561 5563 5565 5563 5561 5565 5567 5570 5570 5573 5574 5575 5574 5572 5571 5570 5568 5565 5565 5566 5567 5569
5598 5592 5572 5565 5559 5573 5604 5590 5613 5617 5612 5599 5583 5568 5561 5555 5551 5548 5544 5542 5538 5540 5542 5540 5539 5538 5540 5539 5540 5540 5538 5541 5544 5541 5541 5543 5547 5549 5551 5555 5556 5556 5556 5555 5553 5551 5552 5553 5554
5591 5590 5561 5553 5554 5563 5583 5570 5604 5593 5587 5580 5567 5555 5546 5538 5536 5532 5527 5523 5518 5520 5521 5521 5518 5514 5512 5511 5512 5515 5519 5521 5518 5517 5517 5517 5520 5524 5528 5531 5532 5534 5535 5538 5541 5538 5536 5538 5540
5576 5564 5566 5544 5529 5529 5569 5589 5596 5580 5567 5556 5545 5536 5525 5521 5516 5514 5509 5501 5498 5496 5497 5498 5496 5492 5489 5488 5488 5490 5493 5493 5491 5490 5491 5491 5494 5498 5502 5506 5509 5513 5513 5514 5517 5522 5522 5520 5523
5564 5558 5535 5522 5517 5514 5547 5561 5578 5562 5548 5539 5529 5519 5512 5508 5502 5495 5489 5487 5481 5477 5473 5473 5473 5472 5468 5465 5466 5464 5467 5468 5466 5466 5466 5468 5472 5475 5476 5479 5484 5486 5490 5494 5496 5498 5501 5503 5506
5542 5539 5539 5536 5525 5505 5516 5539 5581 5551 5538 5523 5512 5500 5492 5485 5479 5474 5468 5465 5462 5459 5456 5453 5450 5447 5445 5444 5444 5443 5442 5445 5444 5443 5443 5444 5448 5451 5454 5455 5457 5461 5462 5469 5473 5478 5479 5479 5485
5534 5531 5528 5510 5518 5512 5511 5515 5568 5528 5508 5499 5485 5477 5471 5467 5459 5454 5449 5446 5444 5440 5438 5436 5434 5430 5427 5425 5422 5420 5420 5422 5422 5420 5419 5422 5424 5427 5429 5435 5438 5437 5439 5443 5451 5454 5457 5455 5462